This is the latest recevied weather packets stored in our database for station/object KI4NG. If no packets are shown the sender has not sent any weather packets the latest 10 day(s).
| Time | Temp. | Humidity | Pressure | Rain* | Wind** | Luminosity | Snow |
|---|---|---|---|---|---|---|---|
| 1777619478 | 6.11° C | 88% | 1015.7 hPa | 0 mm | - | 0 W/m² | - |
| 1777619174 | 6.67° C | 87% | 1015.6 hPa | 0 mm | - | 0 W/m² | - |
| 1777618869 | 7.22° C | 84% | 1015.7 hPa | 0 mm | - | 0 W/m² | - |
| 1777618569 | 7.22° C | 79% | 1015.7 hPa | 0 mm | - | 0 W/m² | - |
| 1777618265 | 7.22° C | 79% | 1015.6 hPa | 0 mm | - | 0 W/m² | - |
| 1777617962 | 7.22° C | 79% | 1015.8 hPa | 0 mm | - | 0 W/m² | - |
| 1777617657 | 7.78° C | 79% | 1016 hPa | 0 mm | - | 0 W/m² | - |
| 1777617348 | 7.78° C | 78% | 1016.1 hPa | 0 mm | - | 0 W/m² | - |
| 1777617046 | 7.78° C | 76% | 1016 hPa | 0 mm | - | 0 W/m² | - |
| 1777616746 | 7.78° C | 75% | 1016.1 hPa | 0 mm | - | 0 W/m² | - |
| 1777616440 | 8.33° C | 74% | 1016 hPa | 0 mm | - | 0 W/m² | - |
| 1777616138 | 8.33° C | 75% | 1016 hPa | 0 mm | - | 0 W/m² | - |
| 1777615835 | 8.33° C | 75% | 1016 hPa | 0 mm | - | 0 W/m² | - |
| 1777615531 | 8.33° C | 74% | 1016.1 hPa | 0 mm | - | 0 W/m² | - |
| 1777615227 | 8.33° C | 73% | 1015.9 hPa | 0 mm | - | 0 W/m² | - |
| 1777614921 | 8.33° C | 74% | 1015.9 hPa | 0 mm | - | 0 W/m² | - |
| 1777614618 | 8.33° C | 72% | 1016.1 hPa | 0 mm | - | 0 W/m² | - |
| 1777614314 | 8.89° C | 72% | 1016.2 hPa | 0 mm | - | 0 W/m² | - |
| 1777614009 | 8.33° C | 73% | 1016.1 hPa | 0 mm | - | 0 W/m² | - |
| 1777613705 | 8.89° C | 74% | 1016.2 hPa | 0 mm | - | 0 W/m² | - |
| 1777613403 | 8.89° C | 72% | 1016 hPa | 0 mm | - | 0 W/m² | - |
| 1777613099 | 8.89° C | 73% | 1016.1 hPa | 0 mm | - | 0 W/m² | - |
| 1777612795 | 8.33° C | 73% | 1016.2 hPa | 0 mm | - | 0 W/m² | - |
| 1777612491 | 8.33° C | 73% | 1016.2 hPa | 0 mm | - | 0 W/m² | - |
| 1777612187 | 8.33° C | 73% | 1016.2 hPa | 0 mm | - | 0 W/m² | - |
* Rain latest hour (hover to see other rain measurements)
** Current wind speed in m/s (hover to see current wind gust speed)